Location: Hoyos del Collado
(40.3594°N, 5.2003°W)
Time: 12:09:02
(UTC+00:00)

ISS - Pass Details

Date: 22 June 2024
Orbit: 410 x 424 km, 51.6° (Epoch: 13 July)

Event Time Altitude Azimuth Distance (km) Brightness Sun altitude
Exits shadow 04:03:50 11° 217° (SW) 1,445 -1.7 -8.1°
Maximum altitude 04:07:01 55° 139° (SE) 502 -3.4 -7.7°
Drops below altitude 10° 04:10:18 10° 61° (ENE) 1,496 0.7 -7.2°
Sets 04:12:26 0° 57° (ENE) 2,367 2.6 -6.9°
